Time,TemperatureF,DewpointF,PressureIn,WindDirection,WindDirectionDegrees,WindSpeedMPH,WindSpeedGustMPH,Humidity,HourlyPrecipIn,Conditions,Clouds,dailyrainin,SoftwareType,DateUTC
2013-01-10 00:11:00,56.1,56.0,30.02,East,82,9.0,9.0,98,0.01,,,0.00,weatherlink.com 1.10,2013-01-10 06:11:00,
2013-01-10 00:26:00,56.1,56.0,30.00,East,96,5.0,9.0,98,0.01,,,0.00,weatherlink.com 1.10,2013-01-10 06:26:00,
2013-01-10 00:41:00,56.1,56.0,30.01,ENE,77,6.0,8.0,98,0.01,,,0.00,weatherlink.com 1.10,2013-01-10 06:41:00,
2013-01-10 00:56:00,56.1,56.0,30.01,East,90,5.0,10.0,98,0.01,,,0.00,weatherlink.com 1.10,2013-01-10 06:56:00,
2013-01-10 01:11:00,56.0,56.0,30.00,East,92,4.0,9.0,98,0.01,,,0.01,weatherlink.com 1.10,2013-01-10 07:11:00,
2013-01-10 01:26:00,55.9,55.0,29.99,ESE,108,8.0,12.0,97,0.01,,,0.01,weatherlink.com 1.10,2013-01-10 07:26:00,
2013-01-10 01:41:00,55.8,55.0,29.98,East,96,7.0,10.0,97,0.01,,,0.01,weatherlink.com 1.10,2013-01-10 07:41:00,
2013-01-10 01:56:00,55.8,55.0,29.97,East,82,7.0,9.0,97,0.01,,,0.01,weatherlink.com 1.10,2013-01-10 07:56:00,
2013-01-10 02:11:00,55.8,55.0,29.98,ESE,114,2.0,9.0,97,0.00,,,0.01,weatherlink.com 1.10,2013-01-10 08:11:00,
2013-01-10 02:26:00,55.9,55.0,29.99,SE,125,8.0,9.0,97,0.00,,,0.01,weatherlink.com 1.10,2013-01-10 08:26:00,
2013-01-10 02:41:00,56.0,55.0,29.99,SE,132,2.0,5.0,97,0.01,,,0.02,weatherlink.com 1.10,2013-01-10 08:41:00,
2013-01-10 02:56:00,56.2,55.0,29.98,SE,136,2.0,5.0,97,0.01,,,0.02,weatherlink.com 1.10,2013-01-10 08:56:00,
2013-01-10 03:11:00,56.2,55.0,29.98,SE,127,2.0,4.0,97,0.01,,,0.02,weatherlink.com 1.10,2013-01-10 09:11:00,
2013-01-10 03:26:00,56.2,55.0,29.97,East,98,2.0,3.0,97,0.02,,,0.03,weatherlink.com 1.10,2013-01-10 09:26:00,
2013-01-10 03:41:00,56.0,55.0,29.97,SSE,156,2.0,3.0,97,0.01,,,0.03,weatherlink.com 1.10,2013-01-10 09:41:00,
2013-01-10 03:56:00,56.1,56.0,29.97,SSE,153,1.0,2.0,98,0.01,,,0.03,weatherlink.com 1.10,2013-01-10 09:56:00,
2013-01-10 04:11:00,56.2,56.0,29.97,SSE,152,1.0,4.0,98,0.01,,,0.03,weatherlink.com 1.10,2013-01-10 10:11:00,
2013-01-10 04:26:00,56.1,56.0,29.96,ESE,114,1.0,2.0,98,0.00,,,0.03,weatherlink.com 1.10,2013-01-10 10:26:00,
2013-01-10 04:41:00,55.7,55.0,29.95,ESE,110,0.0,1.0,97,0.00,,,0.03,weatherlink.com 1.10,2013-01-10 10:41:00,
2013-01-10 04:56:00,55.5,55.0,29.95,South,179,2.0,4.0,98,0.00,,,0.03,weatherlink.com 1.10,2013-01-10 10:56:00,
2013-01-10 05:11:00,56.4,56.0,29.95,SSW,198,2.0,6.0,98,0.00,,,0.03,weatherlink.com 1.10,2013-01-10 11:11:00,
2013-01-10 05:26:00,56.5,56.0,29.94,SSW,211,9.0,15.0,98,0.00,,,0.03,weatherlink.com 1.10,2013-01-10 11:26:00,
2013-01-10 05:42:00,56.5,55.0,29.95,SSW,209,3.0,10.0,96,0.00,,,0.03,weatherlink.com 1.10,2013-01-10 11:42:00,
2013-01-10 05:57:00,56.3,55.0,29.94,SW,214,7.0,10.0,96,0.00,,,0.03,weatherlink.com 1.10,2013-01-10 11:57:00,
2013-01-10 06:12:00,56.2,55.0,29.95,South,177,5.0,10.0,96,0.00,,,0.03,weatherlink.com 1.10,2013-01-10 12:12:00,
2013-01-10 06:27:00,56.0,54.0,29.95,SSE,160,3.0,13.0,94,0.00,,,0.03,weatherlink.com 1.10,2013-01-10 12:27:00,
2013-01-10 06:42:00,55.9,54.0,29.96,SSW,209,2.0,8.0,94,0.00,,,0.03,weatherlink.com 1.10,2013-01-10 12:42:00,
2013-01-10 06:57:00,55.7,54.0,29.96,SSW,212,4.0,11.0,93,0.00,,,0.03,weatherlink.com 1.10,2013-01-10 12:57:00,
2013-01-10 07:12:00,55.4,54.0,29.96,WSW,244,4.0,13.0,93,0.00,,,0.03,weatherlink.com 1.10,2013-01-10 13:12:00,
2013-01-10 07:27:00,54.7,52.0,29.96,WSW,243,12.0,13.0,89,0.00,,,0.03,weatherlink.com 1.10,2013-01-10 13:27:00,
2013-01-10 07:42:00,53.9,51.0,29.97,WSW,238,5.0,11.0,90,0.00,,,0.03,weatherlink.com 1.10,2013-01-10 13:42:00,
2013-01-10 07:57:00,53.4,51.0,29.97,SW,217,4.0,10.0,90,0.00,,,0.03,weatherlink.com 1.10,2013-01-10 13:57:00,
2013-01-10 08:12:00,53.7,51.0,29.98,SW,224,10.0,10.0,89,0.00,,,0.03,weatherlink.com 1.10,2013-01-10 14:12:00,
2013-01-10 08:27:00,53.8,51.0,29.98,SSE,162,1.0,7.0,89,0.00,,,0.03,weatherlink.com 1.10,2013-01-10 14:27:00,
2013-01-10 08:42:00,54.6,51.0,29.98,SSE,165,3.0,6.0,88,0.00,,,0.03,weatherlink.com 1.10,2013-01-10 14:42:00,
2013-01-10 08:57:00,55.5,51.0,29.97,SW,227,2.0,5.0,85,0.00,,,0.03,weatherlink.com 1.10,2013-01-10 14:57:00,
2013-01-10 09:12:00,55.8,51.0,29.97,South,180,3.0,5.0,84,0.00,,,0.03,weatherlink.com 1.10,2013-01-10 15:12:00,
2013-01-10 09:27:00,56.1,51.0,29.96,SSW,200,5.0,7.0,84,0.00,,,0.03,weatherlink.com 1.10,2013-01-10 15:27:00,
2013-01-10 09:42:00,56.3,51.0,29.97,SSW,208,2.0,7.0,83,0.00,,,0.03,weatherlink.com 1.10,2013-01-10 15:42:00,
2013-01-10 09:57:00,55.7,51.0,29.98,SW,224,5.0,11.0,83,0.00,,,0.03,weatherlink.com 1.10,2013-01-10 15:57:00,
2013-01-10 10:12:00,55.5,51.0,29.99,SW,230,5.0,9.0,84,0.00,,,0.03,weatherlink.com 1.10,2013-01-10 16:12:00,
2013-01-10 10:27:00,55.9,50.0,29.99,WSW,237,5.0,11.0,81,0.00,,,0.03,weatherlink.com 1.10,2013-01-10 16:27:00,
2013-01-10 10:57:00,54.2,47.0,29.98,WSW,257,12.0,13.0,78,0.00,,,0.03,weatherlink.com 1.10,2013-01-10 16:57:00,
2013-01-10 11:12:00,54.2,48.0,29.97,WSW,238,4.0,9.0,79,0.00,,,0.03,weatherlink.com 1.10,2013-01-10 17:12:00,
2013-01-10 11:27:00,55.1,48.0,29.98,SW,217,6.0,12.0,76,0.00,,,0.03,weatherlink.com 1.10,2013-01-10 17:27:00,
2013-01-10 11:42:00,55.8,48.0,29.98,South,180,11.0,11.0,75,0.00,,,0.03,weatherlink.com 1.10,2013-01-10 17:42:00,
2013-01-10 11:57:00,55.8,47.0,29.98,WSW,250,5.0,13.0,71,0.00,,,0.03,weatherlink.com 1.10,2013-01-10 17:57:00,
2013-01-10 12:12:00,55.4,46.0,29.97,West,271,5.0,14.0,72,0.00,,,0.03,weatherlink.com 1.10,2013-01-10 18:12:00,
2013-01-10 12:27:00,55.2,46.0,29.96,WSW,242,9.0,14.0,72,0.00,,,0.03,weatherlink.com 1.10,2013-01-10 18:27:00,
2013-01-10 12:42:00,55.3,47.0,29.96,SW,219,6.0,17.0,73,0.00,,,0.03,weatherlink.com 1.10,2013-01-10 18:42:00,
2013-01-10 12:57:00,55.4,47.0,29.95,SW,219,6.0,13.0,73,0.00,,,0.03,weatherlink.com 1.10,2013-01-10 18:57:00,
2013-01-10 13:12:00,56.1,46.0,29.94,West,269,8.0,13.0,70,0.00,,,0.03,weatherlink.com 1.10,2013-01-10 19:12:00,
2013-01-10 13:27:00,56.7,47.0,29.94,West,264,4.0,10.0,69,0.00,,,0.03,weatherlink.com 1.10,2013-01-10 19:27:00,
2013-01-10 13:42:00,57.9,47.0,29.94,WSW,256,6.0,11.0,67,0.00,,,0.03,weatherlink.com 1.10,2013-01-10 19:42:00,
2013-01-10 13:57:00,57.4,46.0,29.95,WSW,240,8.0,13.0,66,0.00,,,0.03,weatherlink.com 1.10,2013-01-10 19:57:00,
2013-01-10 14:27:00,55.7,46.0,29.95,SSW,212,4.0,14.0,70,0.00,,,0.03,weatherlink.com 1.10,2013-01-10 20:27:00,
2013-01-10 14:42:00,55.2,46.0,29.96,SSW,212,6.0,17.0,70,0.00,,,0.03,weatherlink.com 1.10,2013-01-10 20:42:00,
2013-01-10 14:57:00,55.2,46.0,29.96,SW,231,9.0,12.0,71,0.00,,,0.03,weatherlink.com 1.10,2013-01-10 20:57:00,
2013-01-10 15:12:00,55.0,46.0,29.95,WSW,249,9.0,12.0,72,0.00,,,0.03,weatherlink.com 1.10,2013-01-10 21:12:00,
2013-01-10 15:27:00,54.5,46.0,29.95,South,185,6.0,13.0,72,0.00,,,0.03,weatherlink.com 1.10,2013-01-10 21:27:00,
2013-01-10 15:42:00,53.7,46.0,29.95,SSW,194,7.0,13.0,75,0.00,,,0.03,weatherlink.com 1.10,2013-01-10 21:42:00,
2013-01-10 15:58:00,53.6,46.0,29.96,SSE,162,3.0,12.0,75,0.00,,,0.03,weatherlink.com 1.10,2013-01-10 21:58:00,
2013-01-10 16:13:00,53.4,46.0,29.97,SW,236,4.0,13.0,75,0.00,,,0.03,weatherlink.com 1.10,2013-01-10 22:13:00,
2013-01-10 16:28:00,53.5,46.0,29.97,South,184,5.0,15.0,76,0.00,,,0.03,weatherlink.com 1.10,2013-01-10 22:28:00,
2013-01-10 16:43:00,53.6,47.0,29.97,SSW,203,4.0,11.0,77,0.00,,,0.03,weatherlink.com 1.10,2013-01-10 22:43:00,
2013-01-10 16:58:00,53.6,47.0,29.98,SSW,203,6.0,11.0,77,0.00,,,0.03,weatherlink.com 1.10,2013-01-10 22:58:00,
2013-01-10 17:13:00,53.7,47.0,29.98,SSW,212,8.0,14.0,77,0.00,,,0.03,weatherlink.com 1.10,2013-01-10 23:13:00,
2013-01-10 17:28:00,53.7,47.0,29.98,SSW,207,9.0,13.0,77,0.00,,,0.03,weatherlink.com 1.10,2013-01-10 23:28:00,
2013-01-10 17:43:00,53.6,47.0,29.98,SW,224,9.0,10.0,77,0.00,,,0.03,weatherlink.com 1.10,2013-01-10 23:43:00,
2013-01-10 17:58:00,53.5,46.0,29.98,South,190,5.0,9.0,77,0.00,,,0.03,weatherlink.com 1.10,2013-01-10 23:58:00,
2013-01-10 18:13:00,53.2,47.0,29.99,SSW,205,5.0,9.0,78,0.00,,,0.03,weatherlink.com 1.10,2013-01-11 00:13:00,
2013-01-10 18:28:00,52.9,47.0,29.99,SW,221,6.0,8.0,79,0.00,,,0.03,weatherlink.com 1.10,2013-01-11 00:28:00,
2013-01-10 18:43:00,52.4,46.0,29.98,SSW,201,2.0,7.0,80,0.00,,,0.03,weatherlink.com 1.10,2013-01-11 00:43:00,
2013-01-10 18:58:00,51.6,46.0,29.98,SSE,159,3.0,6.0,82,0.00,,,0.03,weatherlink.com 1.10,2013-01-11 00:58:00,
2013-01-10 19:13:00,51.0,46.0,29.98,SSE,158,5.0,6.0,84,0.00,,,0.03,weatherlink.com 1.10,2013-01-11 01:13:00,
2013-01-10 19:28:00,50.5,46.0,29.98,SSW,207,4.0,8.0,85,0.00,,,0.03,weatherlink.com 1.10,2013-01-11 01:28:00,
2013-01-10 19:43:00,50.1,46.0,29.98,SSE,165,4.0,9.0,86,0.00,,,0.03,weatherlink.com 1.10,2013-01-11 01:43:00,
2013-01-10 19:58:00,49.9,46.0,29.97,SSW,203,3.0,6.0,86,0.00,,,0.03,weatherlink.com 1.10,2013-01-11 01:58:00,
2013-01-10 20:13:00,49.9,46.0,29.98,SSW,210,5.0,8.0,86,0.00,,,0.03,weatherlink.com 1.10,2013-01-11 02:13:00,
2013-01-10 20:28:00,49.6,46.0,29.99,SSW,210,4.0,7.0,87,0.00,,,0.03,weatherlink.com 1.10,2013-01-11 02:28:00,
2013-01-10 20:43:00,49.4,46.0,30.00,South,179,4.0,8.0,87,0.00,,,0.03,weatherlink.com 1.10,2013-01-11 02:43:00,
2013-01-10 20:58:00,49.2,46.0,29.98,South,172,4.0,7.0,87,0.00,,,0.03,weatherlink.com 1.10,2013-01-11 02:58:00,
2013-01-10 21:13:00,49.4,46.0,29.98,SE,131,4.0,7.0,87,0.00,,,0.03,weatherlink.com 1.10,2013-01-11 03:13:00,
2013-01-10 21:43:00,49.8,46.0,29.97,SSW,200,5.0,7.0,85,0.00,,,0.03,weatherlink.com 1.10,2013-01-11 03:43:00,
2013-01-10 21:58:00,49.9,46.0,29.97,SSW,193,5.0,9.0,85,0.00,,,0.03,weatherlink.com 1.10,2013-01-11 03:58:00,
2013-01-10 22:13:00,50.0,45.0,29.98,SSE,155,4.0,8.0,84,0.00,,,0.03,weatherlink.com 1.10,2013-01-11 04:13:00,
2013-01-10 22:28:00,49.6,45.0,29.98,South,172,2.0,5.0,85,0.00,,,0.03,weatherlink.com 1.10,2013-01-11 04:28:00,
2013-01-10 22:43:00,49.5,45.0,29.98,SSW,204,2.0,5.0,85,0.00,,,0.03,weatherlink.com 1.10,2013-01-11 04:43:00,
2013-01-10 22:58:00,49.8,45.0,29.99,SSW,210,3.0,7.0,84,0.00,,,0.03,weatherlink.com 1.10,2013-01-11 04:58:00,
2013-01-10 23:13:00,49.7,45.0,29.99,SW,214,4.0,7.0,84,0.00,,,0.03,weatherlink.com 1.10,2013-01-11 05:13:00,
2013-01-10 23:28:00,49.4,45.0,29.99,SSW,211,3.0,6.0,85,0.00,,,0.03,weatherlink.com 1.10,2013-01-11 05:28:00,
2013-01-10 23:43:00,49.1,45.0,29.98,South,184,3.0,6.0,85,0.00,,,0.03,weatherlink.com 1.10,2013-01-11 05:43:00,
2013-01-10 23:58:00,49.0,45.0,29.98,SSW,202,4.0,5.0,86,0.00,,,0.03,weatherlink.com 1.10,2013-01-11 05:58:00,